^^
Saratoga-Weather Station Historical Data
 
Daily Summary for August 22, 2019 Units:  Metric    English   Both

Notice: Undefined index: PHPSELF in C:\OpenGrADS\Contents\tmp\WU-History-inc.php on line 388
Daily Weekly Monthly Yearly Custom
  Current: High: Low: Average:
Temperature: 14.7 °C 16.8 °C 14.7 °C 15.7 °C
Dew Point: 12.0 °C 12.1 °C 11.6 °C 11.9 °C
Humidity: 84% 84% 72% 79%
Wind Speed: 3.7km/h 3.7km/h 1.9km/h 2.7km/h
Wind Gust: 3.7km/h 3.7km/h - -
WindENE - - SSE
Pressure: 1024.8 hPa 1025.7 hPa 1024.7 hPa -
Precipitation: 0.0 mm      
Historical Graphs
 
 
Tabular Data for August 22, 2019
Time Temperature Dew Point Pressure Wind Wind Speed Wind Gust Humidity Rainfall Rate (Hourly) solar
00:00 16.8 °C 11.7 °C 1025.6 hPa North 1.9 km/h 1.9 km/h 72% 0.0 mm 0.00 W/m2
00:05 16.7 °C 11.7 °C 1025.7 hPa North 1.9 km/h 1.9 km/h 72% 0.0 mm 0.00 W/m2
00:10 16.7 °C 11.6 °C 1025.7 hPa North 1.9 km/h 1.9 km/h 72% 0.0 mm 0.00 W/m2
00:15 16.6 °C 11.7 °C 1025.7 hPa North 1.9 km/h 1.9 km/h 73% 0.0 mm 0.00 W/m2
00:20 16.5 °C 11.7 °C 1025.5 hPa North 1.9 km/h 1.9 km/h 73% 0.0 mm 0.00 W/m2
00:25 16.4 °C 11.8 °C 1025.5 hPa North 1.9 km/h 1.9 km/h 74% 0.0 mm 0.00 W/m2
00:30 16.4 °C 11.9 °C 1025.5 hPa North 1.9 km/h 1.9 km/h 75% 0.0 mm 0.00 W/m2
00:35 16.3 °C 12.1 °C 1025.6 hPa ESE 1.9 km/h 1.9 km/h 76% 0.0 mm 0.00 W/m2
00:40 16.2 °C 12.0 °C 1025.5 hPa ESE 1.9 km/h 1.9 km/h 76% 0.0 mm 0.00 W/m2
00:45 16.2 °C 11.9 °C 1025.4 hPa ESE 1.9 km/h 1.9 km/h 76% 0.0 mm 0.00 W/m2
00:50 16.1 °C 11.8 °C 1025.4 hPa ESE 1.9 km/h 1.9 km/h 76% 0.0 mm 0.00 W/m2
00:55 15.9 °C 11.9 °C 1025.3 hPa ESE 1.9 km/h 1.9 km/h 77% 0.0 mm 0.00 W/m2
01:00 15.9 °C 12.1 °C 1025.3 hPa ESE 1.9 km/h 1.9 km/h 78% 0.0 mm 0.00 W/m2
01:05 15.8 °C 11.9 °C 1025.2 hPa East 3.7 km/h 3.7 km/h 78% 0.0 mm 0.00 W/m2
01:10 15.7 °C 12.1 °C 1025.2 hPa East 3.7 km/h 3.7 km/h 79% 0.0 mm 0.00 W/m2
01:15 15.7 °C 12.1 °C 1025.2 hPa East 3.7 km/h 3.7 km/h 79% 0.0 mm 0.00 W/m2
01:20 15.6 °C 12.0 °C 1025.2 hPa East 3.7 km/h 3.7 km/h 79% 0.0 mm 0.00 W/m2
01:25 15.6 °C 12.1 °C 1025.2 hPa East 3.7 km/h 3.7 km/h 80% 0.0 mm 0.00 W/m2
01:30 15.5 °C 12.1 °C 1025.1 hPa East 3.7 km/h 3.7 km/h 80% 0.0 mm 0.00 W/m2
01:35 15.4 °C 12.0 °C 1025.0 hPa East 3.7 km/h 3.7 km/h 80% 0.0 mm 0.00 W/m2
01:40 15.3 °C 11.9 °C 1025.0 hPa East 3.7 km/h 3.7 km/h 80% 0.0 mm 0.00 W/m2
01:45 15.3 °C 12.1 °C 1025.0 hPa East 3.7 km/h 3.7 km/h 81% 0.0 mm 0.00 W/m2
01:50 15.2 °C 12.0 °C 1024.9 hPa East 3.7 km/h 3.7 km/h 81% 0.0 mm 0.00 W/m2
01:55 15.2 °C 12.1 °C 1024.9 hPa East 3.7 km/h   82% 0.0 mm 0.00 W/m2
02:00 15.1 °C 12.1 °C 1024.8 hPa East 3.7 km/h 3.7 km/h 82% 0.0 mm 0.00 W/m2
02:05 15.1 °C 12.0 °C 1024.8 hPa ESE 1.9 km/h 1.9 km/h 82% 0.0 mm 0.00 W/m2
02:10 15.0 °C 11.9 °C 1024.7 hPa ESE 1.9 km/h 1.9 km/h 82% 0.0 mm 0.00 W/m2
02:15 14.9 °C 12.1 °C 1024.7 hPa ESE 1.9 km/h 1.9 km/h 83% 0.0 mm 0.00 W/m2
02:20 14.9 °C 12.0 °C 1024.8 hPa ESE 1.9 km/h 1.9 km/h 83% 0.0 mm 0.00 W/m2
02:25 14.8 °C 11.9 °C 1024.7 hPa ESE 1.9 km/h 1.9 km/h 83% 0.0 mm 0.00 W/m2
02:30 14.8 °C 11.9 °C 1024.7 hPa ESE 1.9 km/h 1.9 km/h 83% 0.0 mm 0.00 W/m2
02:35 14.7 °C 11.9 °C 1024.8 hPa ENE 3.7 km/h 3.7 km/h 83% 0.0 mm 0.00 W/m2
02:40 14.7 °C 12.0 °C 1024.8 hPa ENE 3.7 km/h 3.7 km/h 84% 0.0 mm 0.00 W/m2
Weerstation Beverwaard NL
Compliments of Weather Underground - 2 mb